Location: Wildcat Hills Observatory
(41.6350°N, 103.6812°W)
Time: 02:41:27
(UTC-06:00)

Daily predictions for brighter satellites

Satellite Brightness Start Highest point End
(mag) Time Altitude Azimuth Time Altitude Azimuth Time Altitude Azimuth
Cosmos 1607 3.8 00:07:18 68° SSE 00:07:57 74° ESE 00:14:10 10° NE
Meteor 1-16 Rocket 4.4 00:02:53 10° N 00:08:24 57° ENE 00:08:54 55° E
Lacrosse 4 Rocket 3.6 00:07:36 17° W 00:09:22 22° NW 00:12:35 10° N
Terra 4.0 00:14:06 15° W 00:14:42 15° W 00:17:23 10° WNW
Cosmos 1340 3.9 00:16:32 41° N 00:16:32 41° N 00:19:06 10° N
COSMOS 2406 3.4 00:14:45 54° WSW 00:15:50 67° WNW 00:21:35 10° NNE
SL-8 R/B 4.4 00:11:29 10° WNW 00:16:13 53° NNE 00:17:23 42° ENE
COSMOS 2487 4.3 00:19:20 30° NNE 00:19:20 30° NNE 00:21:17 10° NNE
ALOS 2 2.9 00:19:23 62° NNE 00:19:23 62° NNE 00:23:10 10° N
NOSS 3-2 (C) 4.2 00:19:35 37° ESE 00:19:35 37° ESE 00:25:00 10° NE
Cosmos 1417 Rocket 4.4 00:18:35 10° N 00:24:44 73° E 00:25:28 65° SE
Cosmos 1553 Rocket 4.2 00:24:12 10° N 00:30:28 61° E 00:31:29 55° ESE
Cosmos 1707 3.9 00:33:07 42° NNW 00:33:07 42° NNW 00:35:57 10° N
Cosmos 1408 Rocket 4.1 00:34:50 56° NNE 00:34:50 56° NNE 00:38:29 10° NNE
Cosmos 2082 Rocket 3.7 00:43:09 23° E 00:43:09 23° E 00:47:05 10° NE
Meteor 1-24 Rocket 3.7 00:50:12 72° SW 00:50:48 80° W 00:56:48 10° N
CZ-4C R/B 2.1 00:53:07 70° E 00:53:07 70° E 00:58:47 10° NE
Cosmos 1655 Rocket 4.2 00:54:28 52° WSW 00:55:31 59° W 01:01:44 10° N
S3M 3.8 00:49:42 10° N 00:55:58 84° W 00:56:39 72° SSW
Cosmos 1833 Rocket 4.2 00:56:30 23° E 00:56:30 23° E 01:00:36 10° NE
CZ-4B R/B 3.6 00:58:03 23° NW 00:58:03 23° NW 00:59:49 10° NNW
Timation 2 Rocket 4.2 00:56:22 57° SE 00:57:09 60° ESE 01:03:51 10° NNE
Cosmos 1743 Rocket 4.2 01:00:05 51° NE 01:00:05 51° NE 01:03:39 10° NNE
Cosmos 2266 Rocket 4.2 00:59:06 53° SE 00:59:59 58° E 01:06:16 10° NNE
NOSS 3-2 (A) 3.4 01:03:41 67° SW 01:04:37 87° NW 01:11:19 10° NE
Cosmos 1943 Rocket 4.1 01:02:34 10° WNW 01:05:17 16° W 01:05:17 16° W
ISS -0.1 01:09:26 10° NW 01:11:26 15° N 01:13:27 10° NNE
Cosmos 1766 Rocket 4.4 01:14:07 43° NW 01:14:07 43° NW 01:17:54 10° N
Cosmos 1763 Rocket 3.8 01:08:35 10° NNW 01:13:51 57° ENE 01:14:25 54° E
Cosmos 1867 3.8 01:16:04 56° E 01:16:04 56° E 01:21:04 10° NE
Helios 1A Rocket 4.1 01:12:24 10° N 01:15:32 36° NW 01:15:32 36° NW
Cosmos 1500 Rocket 4.1 01:18:29 54° NE 01:18:29 54° NE 01:21:58 10° NNE
Meteor 1-21 Rocket 4.2 01:18:55 68° SE 01:19:20 72° E 01:25:01 10° NNE
CZ-2C R/B 3.4 01:20:27 58° ESE 01:21:12 64° ENE 01:26:49 10° N
Cosmos 1328 Rocket 4.1 01:22:20 10° NNW 01:25:48 52° NW 01:25:48 52° NW
Cosmos 1656 4.4 01:21:45 10° NNW 01:27:19 50° ENE 01:29:07 37° ESE
Cosmos 2228 Rocket 4.0 01:25:14 10° NNW 01:28:31 39° NW 01:28:31 39° NW
Cosmos 1354 Rocket 4.1 01:29:28 66° ESE 01:29:28 66° ESE 01:34:45 10° NNE
CZ-2C R/B 2.7 01:28:53 10° N 01:34:26 70° WNW 01:34:55 66° WSW
USA 215 3.7 01:28:45 10° ENE 01:34:53 42° SE 01:35:14 42° SE
Cosmos 1515 Rocket 4.0 01:32:12 10° NNW 01:35:52 56° NW 01:35:52 56° NW
Cosmos 1503 Rocket 4.0 01:37:07 73° ESE 01:37:14 74° ESE 01:42:35 10° NNE
Meteor 2-20 4.4 01:36:52 62° SW 01:37:44 71° W 01:43:55 10° N
Cosmos 2369 3.6 01:35:42 10° NNW 01:41:19 67° WSW 01:41:20 67° WSW
In-Cosmos 22 4.2 01:43:48 61° WSW 01:44:16 63° WNW 01:49:52 10° N
Genesis I 4.2 01:40:47 10° NNW 01:44:19 46° NE 01:44:19 46° NE
Cosmos 2344 3.6 01:48:00 47° SSW 01:50:39 90° ESE 01:59:30 10° NE
Cosmos 841 Rocket 3.4 01:46:15 10° NNW 01:51:30 74° WSW 01:51:31 74° WSW
Cosmos 1908 4.2 01:49:43 10° N 01:52:28 44° NNW 01:52:28 44° NNW
Lacrosse 5 3.3 01:50:25 10° NW 01:55:08 37° NE 01:59:50 10° ESE
Cosmos 1437 Rocket 3.4 01:57:25 10° N 02:00:32 54° N 02:00:32 54° N
Cosmos 2278 4.5 01:59:31 10° NW 02:04:07 36° W 02:04:07 36° W
Cosmos 405 3.9 02:04:33 10° N 02:07:17 47° NNE 02:07:17 47° NNE
Cosmos 1805 Rocket 3.7 02:08:20 63° E 02:08:22 63° E 02:12:46 10° NNE
Cosmos 1980 Rocket 2.9 02:03:52 10° NNW 02:09:22 52° ENE 02:12:46 23° SE
NOSS 3-2 (C) 4.4 02:07:00 28° W 02:09:51 43° NW 02:16:15 10° NNE
CENTAUR R/B 2.6 02:11:26 49° SSE 02:12:46 59° ESE 02:19:25 10° NE
Cosmos 1441 Rocket 4.0 02:13:44 46° NW 02:13:44 46° NW 02:17:01 10° N
Cosmos 1300 3.3 02:10:10 10° N 02:13:48 51° ENE 02:13:48 51° ENE
ERS-2 3.1 02:13:50 10° NNE 02:17:04 42° E 02:17:04 42° E
Cosmos 1633 Rocket 3.6 02:17:42 46° ESE 02:18:10 48° E 02:22:26 10° NNE
Cosmos 1707 Rocket 3.4 02:17:47 10° N 02:22:10 80° E 02:22:21 78° ESE
Cosmos 1666 Rocket 3.5 02:24:51 69° ESE 02:25:05 71° E 02:29:24 10° NNE
Cosmos 2082 Rocket 2.7 02:24:59 40° WSW 02:26:24 49° WNW 02:31:55 10° NNE
JB-3 4.3 02:22:38 10° NNE 02:26:34 77° E 02:26:34 77° E
NPP 4.0 02:22:09 10° NNE 02:27:27 55° E 02:29:02 40° SSE
Cosmos 2315 Rocket 4.4 02:23:13 10° NNW 02:29:10 44° W 02:30:21 40° WSW
Cosmos 371 Rocket 4.4 02:24:37 10° N 02:29:13 41° ENE 02:32:37 17° SE
Cosmos 1697 Rocket 2.6 02:25:13 10° NNW 02:30:51 67° WSW 02:32:00 53° SSW
Aureole 1 Rocket 3.4 02:26:40 10° NNW 02:31:12 73° WSW 02:32:16 56° S
Abrixas 3.9 02:35:25 38° NNE 02:35:25 38° NNE 02:37:38 10° NE
ASTEX 1 3.9 02:31:45 10° N 02:36:27 43° WNW 02:37:01 41° W
Cosmos 1833 Rocket 3.2 02:38:11 39° WSW 02:39:47 50° WNW 02:45:16 10° NNE
Cosmos 1455 4.2 02:38:15 10° NNE 02:41:25 24° ENE 02:43:34 15° ESE
CZ-4C R/B 4.1 02:38:16 13° W 02:42:03 24° NW 02:47:00 10° NNE
ARIANE 5 R/B 4.3 02:38:37 10° NE 02:42:46 24° E 02:45:48 15° SE
Cosmos 1745 Rocket 4.0 02:42:40 41° SSW 02:45:03 84° W 02:51:27 10° N
USA 161 3.8 02:45:54 17° ENE 02:45:54 17° ENE 02:47:25 10° NNE
Meteor 1-4 Rocket 4.2 02:43:05 10° N 02:46:31 33° ENE 02:48:17 22° ESE
AQUA 3.9 02:43:05 10° NNE 02:47:51 69° ESE 02:49:12 45° SSE
Cosmos 2360 4.3 02:42:22 10° NNW 02:48:05 74° ENE 02:52:37 17° SSE
Meteor 1-27 4.3 02:42:38 10° NNW 02:48:28 69° W 02:50:25 42° SSW
ISS -0.3 02:46:32 10° NNW 02:48:50 17° NNE 02:51:08 10° ENE
SL-14 R/B 3.1 02:50:20 71° W 02:50:23 71° W 02:54:14 10° N
ATLAS 5 CENTAUR R/B 4.0 02:50:28 12° SE 02:52:38 16° ESE 02:55:33 10° ENE
Cosmos 2151 4.4 02:53:03 24° WNW 02:53:11 24° WNW 02:56:42 10° NNW
Nadezhda 1 Rocket 3.9 02:47:00 10° N 02:53:13 83° W 02:56:06 33° S
Meteor 2-10 4.5 02:48:15 10° N 02:53:25 61° ENE 02:56:57 21° SSE
Cosmos 1726 2.2 02:50:56 10° NNW 02:54:23 62° WNW 02:54:23 62° WNW
Cosmos 2058 3.7 02:55:58 36° W 02:56:09 36° WNW 03:00:03 10° N
PSLV R/B 4.4 02:52:16 10° N 02:56:33 38° WNW 02:57:22 35° W
Sich 1 3.3 03:00:35 47° WSW 03:01:15 52° W 03:05:35 10° N
Cosmos 1703 3.2 03:02:49 60° S 03:03:30 88° W 03:07:29 10° N
IRS-1C 4.1 02:58:27 10° NNE 03:03:48 79° ESE 03:06:10 35° S
Cosmos 540 Rocket 3.8 03:00:20 10° NNW 03:05:13 43° WSW 03:06:02 39° SW
SL-16 R/B 2.8 03:02:43 10° NNW 03:08:20 59° ENE 03:13:55 10° SE
Cosmos 1626 2.6 03:12:42 35° SSE 03:13:58 56° E 03:17:39 10° NNE
Cosmos 1862 Rocket 3.6 03:10:28 10° N 03:14:58 78° E 03:17:26 26° SSE
Lacrosse 5 rocket 2.7 03:11:34 10° NW 03:15:45 43° NE 03:20:06 10° ESE
EO 1 Del DPAF 4.2 03:13:37 14° SE 03:16:42 48° ENE 03:20:29 10° N
Cosmos 332 Rocket 4.1 03:12:29 10° NNW 03:17:03 44° WSW 03:18:07 38° SW
SL-08 R/B 3.6 03:16:04 38° SW 03:17:24 49° W 03:22:09 10° NNW
USA 215 3.6 03:11:37 10° NE 03:18:01 60° NW 03:22:35 20° WSW
Cosmos 1271 Rocket 2.5 03:16:32 10° N 03:20:21 89° W 03:21:45 37° S
Cosmos 2322 Rocket 2.2 03:16:31 10° NNW 03:22:11 81° ENE 03:27:48 10° SSE
Resurs 1-4 Rocket 3.1 03:19:12 10° NNE 03:24:16 43° E 03:28:39 13° SSE
OAO 3 Rocket 3.8 03:34:30 30° SSW 03:35:37 34° S 03:39:52 10° ESE
Lacrosse 5 2.1 03:33:22 10° WNW 03:38:08 43° SW 03:42:54 10° SSE
Cosmos 968 Rocket 4.0 03:38:52 26° WSW 03:41:22 44° WNW 03:46:18 10° N
Cosmos 2181 Rocket 3.9 03:40:30 10° NNW 03:46:37 71° W 03:52:30 11° S
Spot 4 Rocket 4.3 03:43:46 10° N 03:48:48 56° WNW 03:51:59 22° SW
ERS-2 4.3 03:48:59 10° NW 03:50:50 13° WNW 03:51:56 12° W
Cosmos 1980 Rocket 3.4 03:48:42 10° NW 03:52:58 22° W 03:54:28 20° WSW
Cosmos 2360 Rocket 3.0 03:48:39 10° NNW 03:54:11 54° ENE 03:59:40 10° SE
BREEZE-M DEB (TANK) 3.5 03:50:47 10° NW 03:54:17 31° NNE 03:56:24 10° E
Cosmos 923 Rocket 4.0 03:51:15 10° NNW 03:56:30 68° WSW 04:01:40 10° S
CENTAUR R/B 3.8 03:58:36 11° W 04:03:53 32° NW 04:10:06 10° NNE
CZ-2D R/B 2.1 03:59:13 10° NNE 04:04:28 84° WNW 04:09:17 13° SSW
Cosmos 2219 4.4 03:59:23 10° S 04:04:38 39° ESE 04:09:55 10° NE
Cosmos 2322 4.2 03:58:56 10° NNW 04:04:39 65° ENE 04:10:20 10° SE
Cosmos 1680 Rocket 3.4 04:01:28 10° NNW 04:06:41 72° WSW 04:11:51 10° S
Cosmos 1346 3.3 04:07:37 22° SSW 04:09:19 54° W 04:12:21 10° N
Cosmos 1703 Rocket 3.5 04:05:17 10° NNW 04:09:38 68° W 04:13:56 10° S
SL-16 R/B 2.7 04:07:14 10° S 04:13:22 57° W 04:19:33 10° NNW
Thor Agena Rocket 4.1 04:10:45 10° SSE 04:15:58 63° ENE 04:21:13 10° N
CZ-2D R/B 3.6 04:12:35 10° NNE 04:16:48 75° ESE 04:20:52 10° S
Cosmos 1455 3.7 04:14:10 10° NW 04:17:00 20° W 04:18:34 16° WSW
USA 229 DEB 4.4 04:12:43 10° S 04:19:19 50° ESE 04:26:00 10° NE
USA 229 4.5 04:12:50 10° S 04:19:26 49° ESE 04:26:06 10° NE
IRS-1D 4.0 04:14:57 10° N 04:20:06 48° WNW 04:24:41 12° SW
Meteor 1-4 Rocket 4.5 04:19:11 10° NW 04:21:27 15° W 04:22:38 14° WSW
Cosmos 2074 Rocket 4.0 04:15:49 10° SSW 04:22:00 74° W 04:28:17 10° N
ARIANE 5 R/B 3.2 04:17:15 10° N 04:22:00 39° WNW 04:26:09 13° SW
Cosmos 2184 Rocket 4.1 04:18:25 10° SSW 04:24:47 74° W 04:31:09 10° N
ATLAS CENTAUR R/B 3.5 04:20:51 10° NNW 04:25:13 35° NE 04:29:15 10° ESE
ISS -2.7 04:22:34 10° NW 04:25:48 60° NNE 04:29:01 10° ESE
UNKNOWN OBJECT B 2.9 04:23:12 10° N 04:26:55 56° WNW 04:30:36 11° SSW
Cosmos 304 Rocket 4.0 04:23:40 10° NNW 04:28:21 50° WSW 04:33:00 10° S
COSMOS 2428 3.6 04:27:27 10° NNW 04:33:02 55° ENE 04:38:36 10° SE
Cosmos 1833 4.3 04:28:40 10° SSW 04:34:18 68° WNW 04:40:03 10° NNE
GPS 2-05 Rocket1 4.1 04:32:05 13° SW 04:34:27 26° S 04:37:23 10° ESE
Cosmos 1892 4.0 04:32:44 10° SSE 04:36:25 42° E 04:40:07 10° NNE
ATLAS 5 CENTAUR R/B 2.0 04:32:01 12° SW 04:36:36 67° NW 04:41:52 10° NNE
Cosmos 1898 Rocket 3.6 04:33:01 10° SSW 04:38:11 78° ESE 04:43:23 10° NNE
CZ-4B R/B 3.4 04:34:16 10° NNE 04:38:12 61° E 04:42:20 10° S
GENESIS II 4.2 04:35:12 10° NW 04:39:21 82° WSW 04:43:23 10° SSE
Okean O Rocket 1.6 04:35:43 10° N 04:40:10 73° WNW 04:44:33 10° SSW
Okean 1-7 3.4 04:40:59 10° NNW 04:45:10 44° W 04:49:19 10° SSW
Cosmos 292 Rocket 4.5 04:41:31 10° NNW 04:46:18 60° ENE 04:51:01 10° SSE
Cosmos 2150 Rocket 4.1 04:42:07 10° SSW 04:47:23 83° WNW 04:52:47 10° NNE
ADEOS II 4.0 04:44:03 10° NE 04:48:40 30° E 04:53:14 10° SSE
Cosmos 1937 Rocket 3.8 04:44:08 10° S 04:49:25 71° ESE 04:54:42 10° NNE
Meteor 2-3 Rocket 3.8 04:44:46 10° SSW 04:50:31 77° W 04:56:22 10° N
GP-B 4.1 04:46:18 10° NNE 04:50:39 51° E 04:54:58 10° SSE
SL-16 R/B 3.5 04:47:57 10° NW 04:51:56 20° W 04:55:53 10° SW
PSLV R/B 4.2 04:50:43 10° N 04:54:29 48° WNW 04:58:20 10° SSW
Lacrosse 5 rocket 2.4 04:51:04 10° WNW 04:54:57 29° SW 04:58:54 10° S
Cosmos 2237 4.4 04:49:48 10° NNW 04:55:34 85° ENE 05:01:18 10° SSE
